sat.trackr.live / text

‹ back to catalog

STARLINK-2697

NORAD 48474 · 2021-040AY

PAYLOAD ACTIVE UNKNOWN

§ Identity

Operator
Country
US
Launch date
2021-05-09
Launch site
AFETR
Launch vehicle
Mass (kg)
RCS (m²)

Purposes: comms

External: N2YO · Heavens-Above · Gunter

§ Orbital elements

Epoch: 2026-09-02T19:48:13.186368Z

Period
93.99 min
Inclination
53.1591°
Eccentricity
0.0001252
Mean motion
15.32032239 rev/d
Perigee alt
468.9 km
Apogee alt
470.6 km
Semi-major
6,847.9 km
B*
1.4792e-3
RAAN
87.4217°
Arg perigee
167.8325°
Mean anomaly
192.2707°
Rev number
29,362

§ Raw data

STARLINK-26971 48474U 21040AY  26245.82515262  .00046304  00000+0  14792-2 0  99952 48474  53.1591  87.4217 0001252 167.8325 192.2707 15.32032239293624

JSON: /api/v1/satellites/48474 · /tle

For live sub-satellite position, see the globe view (requires WebGL).

§ Visibility from observer

Set your observer location to see the next 7 days of passes ≥ 10°. The values pass through the URL so the page stays shareable.

No JS? Fill the form by hand. The geolocation button needs JavaScript.